Location: Mococo
(38.0255°N, 122.1161°W)
Time: 02:25:39
(UTC+00:00)

USA 215 - Pass Details

Date: 13 February 2026
Orbit: 1098 x 1109 km, 123.0° (Epoch: 10 January)

Event Time Altitude Azimuth Distance (km) Brightness Sun altitude
Rises 13:29:51 0° 108° (ESE) 3,923 7.6 -18.4°
Reaches altitude 10° 13:32:27 10° 102° (ESE) 2,967 6.8 -17.9°
Maximum altitude 13:38:34 43° 34° (NNE) 1,507 4.2 -16.7°
Drops below altitude 10° 13:44:41 10° 325° (NW) 2,976 5.2 -15.5°
Enters shadow 13:45:35 - 323° (NW) 3,305 5.4 -15.3°
